This demonstration page uses our WeatherBlox Daily Observations layout. Learn more.

Left ArrowRight Arrow

Hourly Observations for August 30, 2019

Temp ( °F °C ) Dew Point ( °F °C ) Humidity (%) Winds ( mph kmh ) Pressure ( in mb ) Visibility ( mi km ) Precip ( " mm )
12:53 am 00:53 Clear 86 30 59 15 40 40 S 14 22 29.86 1011 10 16 0.00 0.00
1:53 am 01:53 Mostly Clear 86 30 55 12.8 35 35 NNW 5 7 29.88 1012 10 16 0.00 0.00
2:24 am 02:24 Mostly Clear 81 27.2 60 15.6 49 49 N 16 26 29.87 1011 10 16 0.00 0.00
2:53 am 02:53 Clear 80 26.7 61 16.1 52 52 N 12 19 29.88 1012 10 16 0.00 0.00
3:53 am 03:53 Clear 80 26.7 62 16.7 54 54 NW 5 7 29.83 1010 10 16 0.00 0.00
4:53 am 04:53 Clear 80 26.7 63 17.2 56 56 WSW 8 13 29.80 1009 10 16 0.00 0.00
5:53 am 05:53 Clear 79 26.1 63 17.2 58 58 Calm 29.85 1011 10 16 0.00 0.00
6:53 am 06:53 Clear 77 25 62 16.7 60 60 Calm 29.86 1011 10 16 0.00 0.00
7:53 am 07:53 Sunny 76 24.4 62 16.7 62 62 Calm 29.88 1012 10 16 0.00 0.00
8:53 am 08:53 Sunny 79 26.1 59 15 50 50 ESE 7 11 29.89 1012 10 16 0.00 0.00
9:53 am 09:53 Sunny 83 28.3 58 14.4 43 43 SE 8 13 29.90 1012 10 16 0.00 0.00
10:53 am 10:53 Sunny 87 30.6 57 13.9 36 36 ESE 5 7 29.90 1013 10 16 0.00 0.00
11:53 am 11:53 Sunny 93 33.9 54 12.2 27 27 VRB 5 7 29.89 1012 10 16 0.00 0.00
12:53 pm 12:53 Sunny 92 33.3 54 12.2 28 28 SSE 5 7 29.88 1012 10 16 0.00 0.00
1:53 pm 13:53 Sunny 96 35.6 54 12.2 24 24 undefined N/A 29.85 1011 10 16 0.00 0.00
2:53 pm 14:53 Sunny 98 36.7 53 11.7 22 22 S 6 9 29.83 1010 10 16 0.00 0.00
3:53 pm 15:53 Sunny 98 36.7 53 11.7 22 22 SE 9 15 29.80 1009 10 16 0.00 0.00
4:53 pm 16:53 Sunny 97 36.1 53 11.7 23 23 SSE 9 15 29.78 1009 10 16 0.00 0.00
5:53 pm 17:53 Sunny 97 36.1 53 11.7 23 23 SSE 12 19 29.78 1009 10 16 0.00 0.00
6:53 pm 18:53 Mostly Sunny 94 34.4 53 11.7 25 25 SE 20 31 29.80 1009 10 16 0.00 0.00
7:22 pm 19:22 Mostly Sunny 92 33.3 54 12.2 28 28 S 18 30 29.72 1007 10 16 0.00 0.00
7:53 pm 19:53 Mostly Sunny 89 31.7 56 13.3 33 33 S 14 22 29.83 1010 10 16 0.00 0.00
8:53 pm 20:53 Clear 86 30 56 13.3 36 36 S 9 15 29.85 1011 10 16 0.00 0.00
9:53 pm 21:53 Clear 83 28.3 56 13.3 40 40 SSW 9 15 29.87 1012 10 16 0.00 0.00
10:53 pm 22:53 Clear 82 27.8 57 13.9 42 42 SW 6 9 29.88 1012 10 16 0.00 0.00
11:53 pm 23:53 Clear 78 25.6 58 14.4 50 50 SE 5 7 29.88 1012 10 16 0.00 0.00

Powered by AerisWeather